This is the latest recevied weather packets stored in our database for station/object DB0TGO-14. If no packets are shown the sender has not sent any weather packets the latest 1 day(s).
| Time | Temp. | Humidity | Pressure | Rain* | Wind** | Luminosity | Snow |
|---|---|---|---|---|---|---|---|
| 1778031195 | 10.56° C | 98% | 1006.9 hPa | 1.52 mm | 1.79 m/s, 22° | - | - |
| 1778031094 | 11.11° C | 98% | 1006.9 hPa | 1.52 mm | 2.24 m/s, 22° | - | - |
| 1778030982 | 11.11° C | 98% | 1006.8 hPa | 1.27 mm | 2.24 m/s, 45° | - | - |
| 1778030865 | 11.11° C | 98% | 1007 hPa | 1.27 mm | 2.24 m/s, 22° | - | - |
| 1778030762 | 11.11° C | 98% | 1006.9 hPa | 1.27 mm | 1.79 m/s, 68° | - | - |
| 1778030726 | 11.11° C | 98% | 1006.9 hPa | 1.27 mm | 1.79 m/s, 22° | - | - |
| 1778030645 | 11.11° C | 98% | 1007 hPa | 1.27 mm | 1.34 m/s, 45° | - | - |
| 1778030530 | 11.11° C | 98% | 1007 hPa | 1.27 mm | 1.34 m/s, 45° | - | - |
| 1778030430 | 11.11° C | 98% | 1007 hPa | 1.27 mm | 1.34 m/s, 45° | - | - |
| 1778030333 | 11.11° C | 98% | 1007 hPa | 0.76 mm | 0.89 m/s, 315° | - | - |
| 1778030225 | 11.11° C | 98% | 1007.1 hPa | 0.76 mm | 1.34 m/s, 22° | - | - |
| 1778030105 | 11.11° C | 98% | 1007.2 hPa | 0.76 mm | 1.34 m/s, 22° | - | - |
| 1778030002 | 11.11° C | 98% | 1007 hPa | 1.27 mm | 1.34 m/s, 248° | - | - |
| 1778029905 | 11.11° C | 98% | 1007.1 hPa | 1.27 mm | 1.34 m/s, 45° | - | - |
| 1778029802 | 11.11° C | 98% | 1007.1 hPa | 1.27 mm | 1.34 m/s, 22° | - | - |
| 1778029796 | 11.11° C | 98% | 1007.1 hPa | 1.27 mm | 1.34 m/s, 22° | - | - |
| 1778029698 | 11.11° C | 98% | 1007.2 hPa | 1.27 mm | 1.34 m/s, 68° | - | - |
| 1778029585 | 11.11° C | 98% | 1007.2 hPa | 1.27 mm | 1.34 m/s, 45° | - | - |
| 1778029485 | 11.11° C | 98% | 1007.3 hPa | 1.27 mm | 1.34 m/s, 45° | - | - |
| 1778029375 | 11.11° C | 98% | 1007.2 hPa | 0.76 mm | 1.34 m/s, 22° | - | - |
| 1778029255 | 11.11° C | 98% | 1007.2 hPa | 0.76 mm | 1.34 m/s, 90° | - | - |
| 1778029137 | 11.11° C | 98% | 1007.3 hPa | 0.76 mm | 1.34 m/s, 45° | - | - |
| 1778029030 | 11.11° C | 98% | 1007.3 hPa | 0.76 mm | 1.79 m/s, 22° | - | - |
| 1778028927 | 11.11° C | 98% | 1007.3 hPa | 0.76 mm | 1.34 m/s, 22° | - | - |
| 1778028828 | 11.11° C | 98% | 1007.4 hPa | 0.76 mm | 0.89 m/s, 22° | - | - |
* Rain latest hour (hover to see other rain measurements)
** Current wind speed in m/s (hover to see current wind gust speed)